TimeAKST,TemperatureF,Dew PointF,Humidity,Sea Level PressureIn,VisibilityMPH,Wind Direction,Wind SpeedMPH,Gust SpeedMPH,PrecipitationIn,Events,Conditions,WindDirDegrees,DateUTC
12:53 AM,30.9,19.0,61,29.84,6.0,NE,20.7,31.1,0.00,Snow,Light Snow,50,2013-01-04 09:53:00
1:18 AM,30.2,19.4,64,29.85,7.0,NE,17.3,26.5,0.00,Snow,Light Snow,50,2013-01-04 10:18:00
1:53 AM,30.9,19.9,64,29.87,7.0,NE,8.1,-,0.00,Snow,Light Snow,50,2013-01-04 10:53:00
3:39 AM,28.4,23.0,80,29.89,4.0,NE,8.1,-,0.00,Snow,Light Snow,40,2013-01-04 12:39:00
3:53 AM,30.0,21.9,72,29.90,9.0,NE,6.9,-,0.00,,Overcast,50,2013-01-04 12:53:00
4:53 AM,30.0,21.0,69,29.91,10.0,NE,5.8,-,N/A,,Overcast,40,2013-01-04 13:53:00
5:53 AM,30.0,21.9,72,29.94,10.0,Calm,Calm,-,N/A,,Overcast,0,2013-01-04 14:53:00
6:25 AM,30.2,21.2,69,29.95,9.0,Calm,Calm,-,N/A,,Overcast,0,2013-01-04 15:25:00
6:41 AM,30.2,23.0,75,29.95,2.0,Calm,Calm,-,0.00,Snow,Light Snow,0,2013-01-04 15:41:00
6:53 AM,30.0,24.1,79,29.96,2.5,Calm,Calm,-,0.00,Snow,Light Snow,0,2013-01-04 15:53:00
7:40 AM,28.4,24.8,86,29.99,1.5,Calm,Calm,-,0.00,Snow,Light Snow,0,2013-01-04 16:40:00
7:53 AM,28.9,25.0,85,29.98,1.8,NE,3.5,-,0.00,Snow,Light Snow,40,2013-01-04 16:53:00
8:10 AM,28.4,24.8,86,29.99,2.5,Calm,Calm,-,0.00,Snow,Light Snow,0,2013-01-04 17:10:00
8:19 AM,28.4,24.8,86,29.99,2.5,Calm,Calm,-,0.00,Snow,Light Snow,0,2013-01-04 17:19:00
8:26 AM,28.4,24.8,86,30.00,3.0,Calm,Calm,-,0.00,Snow,Light Snow,0,2013-01-04 17:26:00
8:42 AM,28.4,24.8,86,30.01,2.5,Calm,Calm,-,0.00,Snow,Light Snow,0,2013-01-04 17:42:00
8:49 AM,28.4,26.6,93,30.01,1.8,Calm,Calm,-,0.00,Snow,Light Snow,0,2013-01-04 17:49:00
8:53 AM,28.9,26.1,89,30.01,1.8,Calm,Calm,-,0.00,Snow,Light Snow,0,2013-01-04 17:53:00
9:00 AM,28.4,26.6,93,30.02,2.5,Calm,Calm,-,0.00,Snow,Light Snow,0,2013-01-04 18:00:00
9:13 AM,28.4,26.6,93,30.02,3.0,Calm,Calm,-,0.00,Snow,Light Snow,0,2013-01-04 18:13:00
9:53 AM,30.0,26.1,85,30.04,5.0,Calm,Calm,-,0.00,,Overcast,0,2013-01-04 18:53:00
10:35 AM,30.2,28.4,93,30.07,2.5,Calm,Calm,-,0.00,Snow,Light Snow,0,2013-01-04 19:35:00
10:48 AM,30.2,28.4,93,30.07,1.5,Calm,Calm,-,0.00,Snow,Light Snow,0,2013-01-04 19:48:00
10:53 AM,30.0,28.0,92,30.08,1.5,Calm,Calm,-,0.00,Snow,Light Snow,0,2013-01-04 19:53:00
11:34 AM,30.2,28.4,93,30.09,2.0,Calm,Calm,-,0.00,,Overcast,0,2013-01-04 20:34:00
11:53 AM,30.0,27.0,88,30.10,1.8,ENE,3.5,-,0.00,,Overcast,60,2013-01-04 20:53:00
12:03 PM,30.2,28.4,93,30.11,1.0,Calm,Calm,-,0.00,Snow,Light Snow,0,2013-01-04 21:03:00
12:45 PM,30.2,28.4,93,30.10,1.5,Calm,Calm,-,0.00,Snow,Light Snow,0,2013-01-04 21:45:00
12:53 PM,30.9,28.0,89,30.10,2.0,Calm,Calm,-,0.00,Snow,Light Snow,0,2013-01-04 21:53:00
12:55 PM,30.2,28.4,93,30.10,1.8,Calm,Calm,-,0.00,Snow,Light Snow,0,2013-01-04 21:55:00
1:04 PM,30.2,28.4,93,30.10,3.0,Calm,Calm,-,0.00,Snow,Light Snow,0,2013-01-04 22:04:00
1:20 PM,30.2,30.2,100,30.10,6.0,Calm,Calm,-,0.00,,Overcast,0,2013-01-04 22:20:00
1:53 PM,30.9,28.9,92,30.10,8.0,Calm,Calm,-,0.00,,Overcast,0,2013-01-04 22:53:00
2:28 PM,32.0,28.4,87,30.10,9.0,Calm,Calm,-,N/A,,Overcast,0,2013-01-04 23:28:00
2:53 PM,30.9,28.0,89,30.10,8.0,Calm,Calm,-,N/A,,Overcast,0,2013-01-04 23:53:00
3:19 PM,30.2,28.4,93,30.10,10.0,Calm,Calm,-,N/A,,Overcast,0,2013-01-05 00:19:00
3:38 PM,30.2,28.4,93,30.10,9.0,Calm,Calm,-,N/A,,Overcast,0,2013-01-05 00:38:00
3:53 PM,30.9,30.0,96,30.10,10.0,Calm,Calm,-,N/A,,Overcast,0,2013-01-05 00:53:00
4:26 PM,30.2,30.2,100,30.10,10.0,Calm,Calm,-,N/A,,Overcast,0,2013-01-05 01:26:00
4:53 PM,32.0,30.0,92,30.11,10.0,Calm,Calm,-,N/A,,Overcast,0,2013-01-05 01:53:00
5:17 PM,30.2,28.4,93,30.10,10.0,NNE,3.5,-,N/A,,Overcast,30,2013-01-05 02:17:00
5:53 PM,30.0,28.0,92,30.10,9.0,NE,4.6,-,N/A,,Overcast,40,2013-01-05 02:53:00
6:36 PM,30.2,28.4,93,30.08,10.0,Calm,Calm,-,N/A,,Overcast,0,2013-01-05 03:36:00
6:53 PM,30.0,28.0,92,30.07,10.0,Calm,Calm,-,N/A,,Mostly Cloudy,0,2013-01-05 03:53:00
7:53 PM,28.9,27.0,92,30.06,10.0,Calm,Calm,-,N/A,,Mostly Cloudy,0,2013-01-05 04:53:00
8:53 PM,28.0,25.0,88,30.05,9.0,NE,3.5,-,N/A,,Clear,50,2013-01-05 05:53:00
9:53 PM,28.0,26.1,92,30.04,10.0,Calm,Calm,-,N/A,,Clear,0,2013-01-05 06:53:00
10:53 PM,28.9,26.1,89,30.03,9.0,Calm,Calm,-,N/A,,Clear,0,2013-01-05 07:53:00
11:53 PM,28.0,26.1,92,30.00,10.0,Calm,Calm,-,N/A,,Clear,0,2013-01-05 08:53:00